ION-MK01 (46274 NORAD) Tracking and Keplerian Element Data

This shows tracking and keplerian element data for the satellite.

Feedback or suggestion? Click here.




ElementValue
Catalog46274
NameION-MK01
Epoch Orbit1267
Epoch Day330.81532322
Epoch Year2020
RAAN42.4071
Inclination97.4604
Eccentricity0.0004985
Argument of Perigee312.9706
Mean Anonmoly47.1108
Mean Motion15.15264131
Decay Rate9.23E-06
L11 46274U 20061C 20330.81532322 .00000923 00000-0 52537-4 0 9996
L22 46274 97.4604 42.4071 0004985 312.9706 47.1108 15.15264131 12673

Live tracking and technical data element details for ION-MK01 (NORAD 46274). ION-MK01 can be tracked NOW for your location showing map with azimuth and elevation plus other details from your city location.

Track the satellite on the map from your city or location and see movement details for azimuth, elevation, latitude, longitude, range, height, and movement on the map or in text.







IsCatalogInMostPopularTable: catalog: 46274, numindb: 14
Update: records affected: 1



GetName: 46274 ION-MK01

Hit Count: updated at: Fri, 27 Nov 2020 00:39:23 GMT